User: anonymous   Login
Location: Bouysse
(45.3674°N, 1.8947°E)
Time: 12:45:39
(UTC+00:00)
Language:

Cosmos 1408 Rocket - Orbit

View from above orbital plane
View from above orbital plane
View from above satellite
View from above satellite

Ground track
Ground track

The orbit data is extracted from the following two-line orbital elements,

1 13553U 82092B   21162.91728208  .00000071  00000-0  55538-5 0  9996
2 13553  82.5679 317.6332 0019796 274.1249 199.7076 14.84276843 71882
Epoch (UTC): 11 June 2021 22:00:53
Eccentricity: 0.0019796
inclination: 82.5679°
perigee height: 602 km
apogee height: 630 km
right ascension of ascending node: 317.6332°
argument of perigee: 274.1249°
revolutions per day: 14.84276843
mean anomaly at epoch: 199.7076°
orbit number at epoch: 7188

The dashed part of the orbit path shows where the satellite is in the earth's shadow,  

DLR